Regional Weather Roundup
Issued by NWS

Home | Current Version | Previous Version | Graphics & Text | Print | Product List | Glossary On
Versions: 1 2 3 4 5 6 7 8 9 10 11 12 13 14 15 16 17 18 19 20 21 22 23 24 25 26 27 28 29 30 31 32 33 34 35 36 37 38 39 40 41 42 43 44 45 46 47 48 49 50
000
ASUS43 KOAX 241310
RWRNE

WEATHER ROUNDUP FOR NEBRASKA
NATIONAL WEATHER SERVICE OMAHA NE
800 AM CDT THU APR 24 2014

NOTES: SATELLITE DATA IS BEING USED TO AUGMENT CLOUD COVER ABOVE
       12000 FEET.
       "FAIR" INDICATES FEW OR NO CLOUDS BELOW 12,000 FEET WITH NO
       SIGNIFICANT WEATHER AND/OR OBSTRUCTIONS TO VISIBILITY.

  * THESE STATIONS DO NOT REPORT WEATHER SUCH AS RAIN...SNOW OR FOG.

NEZ001>004-019>022-054>056-241400-
NEBRASKA PANHANDLE

CITY           SKY/WX    TMP DP  RH WIND       PRES   REMARKS
SCOTTSBLUFF    CLEAR     33  23  66 NW8       29.96R WCI  26
ALLIANCE       SUNNY     33  27  78 W12       29.92R WCI  24
CHADRON        SUNNY     35  29  78 SW3       29.92R
KIMBALL        CLEAR     37  17  44 W17       29.95S WCI  28
SIDNEY         SUNNY     39  19  44 W12       29.96R WCI  32
$$

NEZ057>060-069>072-079>082-241400-
SOUTHWEST NEBRASKA

CITY           SKY/WX    TMP DP  RH WIND       PRES   REMARKS
NORTH PLATTE   CLOUDY    45  35  68 NW12      29.87R
IMPERIAL       PTSUNNY   45  32  60 NW16G24   29.91R
LEXINGTON      MOSUNNY   51  37  59 NW13      29.83R
MCCOOK         CLOUDY    50  36  58 NW16      29.86R
OGALLALA       MOSUNNY   43  32  65 NW14      29.91R
$$

NEZ005>010-023>029-035>040-094-241400-
NORTH CENTRAL NEBRASKA

CITY           SKY/WX    TMP DP  RH WIND       PRES   REMARKS
VALENTINE      MOSUNNY   43  31  62 W15       29.84R
AINSWORTH      MOSUNNY   46  33  59 NW9       29.82S
BROKEN BOW     MOSUNNY   49  32  52 NW17      29.81R
O`NEILL        CLOUDY    49  35  57 NW14      29.78R
ORD            CLOUDY    50  37  61 NW15      29.79R
THEDFORD       MOSUNNY   45  33  62 W10       29.86R
$$

NEZ041-046>049-061>064-073>077-083>087-241400-
SOUTH CENTRAL NEBRASKA

CITY           SKY/WX    TMP DP  RH WIND       PRES   REMARKS
GRAND ISLAND   CLOUDY    52  43  71 NW18      29.76R
AURORA         CLOUDY    51  47  87 NW17      29.74S
HASTINGS       CLOUDY    52  42  69 N18G25    29.74S
HEBRON         CLOUDY    52  47  81 NW6       29.71R
HOLDREGE       PTSUNNY   49  40  73 NW12      29.79R
KEARNEY *      CLOUDY    52  39  62 NW16      29.79R
YORK           CLOUDY    50  48  93 NW23      29.71R
$$

NEZ011>018-030>034-042>045-241400-
NORTHEAST NEBRASKA

CITY           SKY/WX    TMP DP  RH WIND       PRES   REMARKS
NORFOLK        CLOUDY    51  43  74 NW17      29.70R
ALBION         CLOUDY    51  41  70 NW12      29.74R
BLAIR          CLOUDY    47  46  93 N6        29.64F FOG
COLUMBUS *     CLOUDY    52  43  71 NW14      29.72R
FREMONT        CLOUDY    49  48  96 W3        29.67S FOG
TEKAMAH        CLOUDY    50  47  89 NW3       29.66S
$$

NEZ050>053-065>068-078-088>093-241400-
SOUTHEAST NEBRASKA

CITY           SKY/WX    TMP DP  RH WIND       PRES   REMARKS
LINCOLN        CLOUDY    54  49  83 NW9       29.67R
OMAHA EPPLEY   LGT RAIN  49  46  90 N7        29.62F FOG
BEATRICE       CLOUDY    53  51  94 NW8       29.68R FOG
FALLS CITY     LGT RAIN  54  54 100 E9        29.59F FOG
NEBRASKA CITY  CLOUDY    50  50 100 N9        29.63F FOG
PLATTSMOUTH    CLOUDY    49  47  93 CALM      29.63F FOG
$$

NEZ044-045-051>053-067-241400-
OMAHA AREA

CITY           SKY/WX    TMP DP  RH WIND       PRES   REMARKS
OMAHA EPPLEY   LGT RAIN  49  46  90 N7        29.62F FOG
BLAIR          CLOUDY    47  46  93 N6        29.64F FOG
FREMONT        CLOUDY    49  48  96 W3        29.67S FOG
MILLARD        CLOUDY    49  47  93 CALM      29.64F FOG
PLATTSMOUTH    CLOUDY    49  47  93 CALM      29.63F FOG
WAHOO          PTSUNNY   50  47  91 W6        29.67R FOG
$$



USA.gov is the U.S. government's official web portal to all federal, state and local government web resources and services.